www.pogodaiklimat.ru

Погода и климат >> Архив погоды >> Бразилия >> Мату-Гросу >> Сан-Феликс-ду-Арагуайя


ПОГОДА в Сан-Феликс-ду-Арагуайе

  • Прогноз погоды в Сан-Феликс-ду-Арагуайе
  • Монитор погоды в Сан-Феликс-ду-Арагуайе

АРХИВ ПОГОДЫ в Сан-Феликс-ду-Арагуайе

Время (UTC), дата Ветер
(напр.,м/с)
 
Видим.   Явления Облачность Т
(С)
Тd
(С)
f
(%)
Тe
(С)
Тes
(С)
Комфортность P
(гПа)
Po
(гПа)
Тmin
(С)
Tmax
(С)
R
(мм)
R24
(мм)
S
(см)
04 13.06 штиль 0
{1}
н/о н/о +21.5 +19 +19 1014.9 991.5
05 13.06 штиль 0
{1}
н/о н/о +21.1 +19 +19 1014.5 991.0
06 13.06 штиль 0
{1}
н/о н/о +21.2 +19 +19 1014.0 990.6
07 13.06 штиль 0
{1}
н/о н/о +21.2 +19 +19 1014.0 990.6
08 13.06 штиль 0
{1}
н/о н/о +21.6 +19 +19 1014.5 991.1
09 13.06 З 1
{2}
н/о н/о +22.0 +19 +19 1014.6 991.2
10 13.06 штиль 0
{2}
н/о н/о +21.6 +19 +19 1015.4 992.0
11 13.06 ЮЗ 1
{2}
н/о н/о +24.5 +21 +21 комфорт 1016.0 992.8
12 13.06 ЮЗ 2
{3}
н/о н/о +27.0 +22 +22 комфорт 1016.8 993.7
13 13.06 ЮЗ 2
{4}
н/о н/о +28.3 +23 +23 комфорт 1016.9 993.9
14 13.06 Ю 3
{5}
н/о н/о +30.6 +25 +25 комфорт 1016.5 993.7
15 13.06 ЮЗ 2
{5}
н/о н/о +31.3 +26 +26 жарко 1015.8 993.1
16 13.06 ЮЗ 2
{4}
н/о н/о +31.7 +26 +26 жарко 1014.9 992.2
17 13.06 Ю 2
{4}
н/о н/о +32.1 +27 +27 жарко 1013.8 991.2
18 13.06 Ю 2
{4}
н/о н/о +32.2 +27 +27 жарко 1013.0 990.4
19 13.06 ЮЗ 1
{3}
н/о н/о +31.9 +27 +27 жарко 1012.9 990.3
20 13.06 Ю 2
{3}
н/о н/о +31.0 +26 +26 жарко 1013.1 990.4
21 13.06 ЮЗ 1
{2}
н/о н/о +29.0 +24 +24 комфорт 1013.6 990.8
22 13.06 З 1
{1}
н/о н/о +25.8 +21 +21 комфорт 1014.4 991.3
23 13.06 З 1
{1}
н/о н/о +24.1 +20 +20 1015.0 991.8
00 14.06 З 1
{1}
н/о н/о +23.4 +19 +19 1015.8 992.5
01 14.06 штиль 0
{1}
н/о н/о +22.6 +19 +19 1016.1 992.7
02 14.06 штиль 0
{1}
н/о н/о +21.8 +19 +19 1015.9 992.5
03 14.06 штиль 0
{1}
н/о н/о +21.0 +19 +19 1016.1 992.6
04 14.06 З 1
{1}
н/о н/о +21.4 +19 +19 1015.7 992.2
05 14.06 Ю 1
{2}
н/о н/о +21.2 +19 +19 1015.5 992.0
06 14.06 штиль 0
{2}
н/о н/о +18.4 -27.7 3 +18 +18 1015.0 991.3
07 14.06 штиль 0
{1}
н/о н/о +19.8 -26.7 3 +19 +19 1014.7 991.1
08 14.06 З 1
{1}
н/о н/о +20.5 +21 +21 комфорт 1015.0 991.5
09 14.06 З 1
{2}
н/о н/о +19.7 +20 +20 1015.6 992.0
10 14.06 З 1
{1}
н/о н/о +20.4 +20 +20 1016.1 992.6
11 14.06 З 1
{2}
н/о н/о +21.3 +19 +19 1016.9 993.4
12 14.06 З 1
{2}
н/о н/о +25.7 +21 +21 комфорт 1017.1 993.9
13 14.06 ЮЗ 2
{3}
н/о н/о +29.4 +24 +24 комфорт 1017.1 994.2
14 14.06 Ю 2
{4}
н/о н/о +30.2 +25 +25 комфорт 1016.7 993.9
15 14.06 Ю 2
{4}
н/о н/о +31.6 +26 +26 жарко 1015.9 993.2
16 14.06 ЮЗ 2
{3}
н/о н/о +31.5 +26 +26 жарко 1015.1 992.4
17 14.06 Ю 2
{3}
н/о н/о +31.6 +26 +26 жарко 1013.9 991.3
18 14.06 ЮЗ 1
{3}
н/о н/о +32.2 +27 +27 жарко 1013.3 990.7
19 14.06 ЮЗ 2
{3}
н/о н/о +31.0 +26 +26 жарко 1013.2 990.5
20 14.06 Ю 2
{3}
н/о н/о +31.3 +26 +26 жарко 1013.2 990.6
21 14.06 ЮЗ 1
{3}
н/о н/о +28.3 +23 +23 комфорт 1013.9 991.0
22 14.06 ЮЗ 1
{1}
н/о н/о +26.2 +22 +22 комфорт 1014.6 991.5
23 14.06 ЮЗ 1
{1}
н/о н/о +25.1 +21 +21 комфорт 1015.0 991.8
00 15.06 штиль 0
{1}
н/о н/о +24.7 +21 +21 комфорт 1015.5 992.3
01 15.06 ЮЗ 1
{1}
н/о н/о +24.1 +20 +20 1015.6 992.4
02 15.06 ЮЗ 1
{2}
н/о н/о +24.6 +21 +21 комфорт 1015.6 992.4
03 15.06 ЮЗ 1
{2}
н/о н/о +24.6 +21 +21 комфорт 1015.4 992.2
04 15.06 штиль 0
{1}
н/о н/о +23.1 +19 +19 1015.0 991.7
05 15.06 штиль 0
{1}
н/о н/о +21.1 +19 +19 1014.7 991.2
06 15.06 ЮЗ 1
{1}
н/о н/о +21.6 +19 +19 1014.3 990.9
07 15.06 ЮЗ 1
{1}
н/о н/о +21.7 +19 +19 1014.0 990.6
08 15.06 З 1
{2}
н/о н/о +21.2 +19 +19 1014.3 990.9
09 15.06 З 1
{2}
н/о н/о +20.5 +20 +20 1014.7 991.2
10 15.06 З 1
{2}
н/о н/о +20.7 +21 +21 комфорт 1015.2 991.7
11 15.06 ЮЗ 1
{2}
н/о н/о +23.9 +20 +20 1016.1 992.8
12 15.06 ЮЗ 2
{3}
н/о н/о +26.4 +22 +22 комфорт 1016.9 993.8
13 15.06 ЮЗ 3
{5}
н/о н/о +28.5 +24 +24 комфорт 1016.9 994.0
14 15.06 Ю 2
{5}
н/о н/о +30.2 +25 +25 комфорт 1016.6 993.8
15 15.06 Ю 2
{4}
н/о н/о +30.9 +26 +26 жарко 1015.8 993.1
16 15.06 ЮЗ 3
{5}
н/о н/о +31.2 +26 +26 жарко 1015.0 992.3
17 15.06 Ю 2
{5}
н/о н/о +31.9 +27 +27 жарко 1013.9 991.3
18 15.06 Ю 2
{5}
н/о н/о +31.7 +26 +26 жарко 1013.1 990.5
19 15.06 Ю 2
{4}
н/о н/о +31.2 +26 +26 жарко 1013.2 990.5
20 15.06 Ю 2
{4}
н/о н/о +30.6 +25 +25 комфорт 1013.4 990.7
21 15.06 Ю 1
{3}
н/о н/о +28.2 +23 +23 комфорт 1014.1 991.2
22 15.06 штиль 0
{2}
н/о н/о +23.7 +20 +20 1015.1 991.8
23 15.06 ЮЗ 1
{1}
н/о н/о +22.7 +19 +19 1015.5 992.1
00 16.06 ЮЗ 1
{1}
н/о н/о +22.9 +19 +19 1016.3 992.9
01 16.06 ЮЗ 1
{2}
н/о н/о +21.2 +19 +19 1016.8 993.3
02 16.06 ЮЗ 1
{2}
н/о н/о +22.5 +19 +19 1016.7 993.3
03 16.06 штиль 0
{1}
н/о н/о +19.4 +18 +18 1016.7 993.1
04 16.06 штиль 0
{2}
н/о н/о +20.0 +19 +19 1016.3 992.7
05 16.06 З 1
{1}
н/о н/о +19.8 +20 +20 1016.0 992.4
06 16.06 З 1
{1}
н/о н/о +20.0 +20 +20 1015.5 991.9
07 16.06 З 1
{1}
н/о н/о +19.7 +20 +20 1015.5 991.9
08 16.06 Ю 1
{1}
н/о н/о +19.4 +20 +20 1016.1 992.5
09 16.06 ЮЗ 1
{2}
н/о н/о +19.3 +20 +20 1016.3 992.7
10 16.06 штиль 0
{2}
н/о н/о +19.6 +19 +19 1017.2 993.6
11 16.06 З 1
{1}
н/о н/о +22.6 +19 +19 1017.8 994.4
12 16.06 ЮЗ 1
{2}
н/о н/о +26.3 +22 +22 комфорт 1018.0 994.9
13 16.06 ЮЗ 2
{4}
н/о н/о +28.7 +24 +24 комфорт 1018.2 995.2
14 16.06 ЮЗ 3
{5}
н/о н/о +30.1 +25 +25 комфорт 1017.8 995.0
15 16.06 ЮЗ 2
{5}
н/о н/о +30.6 +25 +25 комфорт 1017.4 994.6
16 16.06 ЮЗ 2
{4}
н/о н/о +31.7 +26 +26 жарко 1016.0 993.3
17 16.06 ЮЗ 2
{4}
н/о н/о +31.9 +27 +27 жарко 1015.0 992.4
18 16.06 ЮЗ 1
{5}
н/о н/о +32.2 +27 +27 жарко 1014.4 991.8
19 16.06 ЮЗ 1
{3}
н/о н/о +31.6 +26 +26 жарко 1014.4 991.7
20 16.06 ЮЗ 1
{3}
н/о н/о +30.6 +25 +25 комфорт 1014.7 992.0
21 16.06 ЮЗ 1
{2}
н/о н/о +28.0 +23 +23 комфорт 1015.1 992.2
22 16.06 штиль 0
{1}
н/о н/о +24.5 +21 +21 комфорт 1015.7 992.5
23 16.06 штиль 0
{1}
н/о н/о +22.0 +19 +19 1016.3 992.9
00 17.06 штиль 0
{1}
н/о н/о +21.7 +19 +19 1016.9 993.4
01 17.06 ЮЗ 1
{1}
н/о н/о +20.9 +21 +21 комфорт 1017.1 993.6
02 17.06 ЮЗ 1
{2}
н/о н/о +22.7 +19 +19 1016.8 993.4
03 17.06 штиль 0
{2}
н/о н/о +21.8 +19 +19 1016.6 993.2
04 17.06 штиль 0
{1}
н/о н/о +21.1 +19 +19 1016.2 992.7
05 17.06 штиль 0
{1}
н/о н/о +19.7 +19 +19 1015.8 992.2
06 17.06 З 1
{2}
н/о н/о +20.0 +20 +20 1015.4 991.8
07 17.06 штиль 0
{2}
н/о н/о +17.3 -28.5 3 +17 +17 1015.5 991.7
08 17.06 штиль 0
{2}
н/о н/о +17.6 -28.3 3 +18 +18 1016.0 992.2
09 17.06 З 1
{1}
н/о н/о +17.8 -28.2 3 +19 +19 1016.3 992.5
10 17.06 СЗ 1
{1}
н/о н/о +18.4 -27.7 3 +20 +20 1016.7 993.0
11 17.06 СЗ 1
{2}
н/о н/о +21.6 +19 +19 1017.6 994.1
12 17.06 З 1
{2}
н/о н/о +24.9 +21 +21 комфорт 1017.8 994.6
13 17.06 ЮЗ 1
{2}
н/о н/о +28.1 +23 +23 комфорт 1017.9 994.9
14 17.06 ЮЗ 1
{3}
н/о н/о +30.1 +25 +25 комфорт 1017.4 994.6
15 17.06 ЮЗ 2
{4}
н/о н/о +31.0 +26 +26 жарко 1016.6 993.9
16 17.06 ЮЗ 2
{4}
н/о н/о +31.7 +26 +26 жарко 1015.6 992.9
17 17.06 Ю 2
{4}
н/о н/о +31.6 +26 +26 жарко 1014.7 992.0
18 17.06 Ю 1
{4}
н/о н/о +31.3 +26 +26 жарко 1014.0 991.3
19 17.06 ЮЗ 1
{3}
н/о н/о +31.1 +26 +26 жарко 1013.6 990.9
20 17.06 З 1
{3}
н/о н/о +30.5 +25 +25 комфорт 1013.5 990.8
21 17.06 З 1
{2}
н/о н/о +28.0 +23 +23 комфорт 1014.1 991.2
22 17.06 З 1
{1}
н/о н/о +24.2 +20 +20 1014.8 991.6
23 17.06 штиль 0
{1}
н/о н/о +22.7 +19 +19 1015.6 992.2
00 18.06 штиль 0
{1}
н/о н/о +21.7 +19 +19 1016.0 992.6
01 18.06 штиль 0
{1}
н/о н/о +21.6 +19 +19 1016.3 992.8
02 18.06 штиль 0
{1}
н/о н/о +20.9 +19 +19 1016.4 992.9
03 18.06 штиль 0
{1}
н/о н/о +20.0 +19 +19 1016.3 992.7
04 18.06 штиль 0
{1}
н/о н/о +19.6 -26.9 3 +19 +19 1016.0 992.4
05 18.06 штиль 0
{1}
н/о н/о +19.0 -27.3 3 +18 +18 1015.6 992.0
06 18.06 З 1
{2}
н/о н/о +19.1 -27.2 3 +20 +20 1015.4 991.8
07 18.06 СЗ 1
{2}
н/о н/о +19.2 -27.2 3 +20 +20 1014.9 991.3
08 18.06 СЗ 1
{2}
н/о н/о +19.1 -27.3 3 +20 +20 1014.9 991.3
09 18.06 СЗ 1
{2}
н/о н/о +19.0 -27.3 3 +20 +20 1015.2 991.6
10 18.06 З 1
{2}
н/о н/о +18.9 +20 +20 1015.9 992.2
11 18.06 З 1
{2}
н/о н/о +22.1 +19 +19 1016.4 993.0
12 18.06 З 1
{2}
н/о н/о +25.0 +21 +21 комфорт 1016.7 993.5
13 18.06 З 1
{2}
н/о н/о +28.2 +23 +23 комфорт 1016.6 993.6
14 18.06 ЮЗ 1
{2}
н/о н/о +30.6 +25 +25 комфорт 1016.2 993.4
15 18.06 ЮЗ 2
{3}
н/о н/о +31.4 +26 +26 жарко 1015.3 992.6
16 18.06 ЮЗ 1
{3}
н/о н/о +32.2 +27 +27 жарко 1014.3 991.7
17 18.06 ЮЗ 1
{3}
н/о н/о +32.9 +28 +28 жарко 1013.1 990.6
18 18.06 Ю 1
{3}
н/о н/о +32.5 +27 +27 жарко 1012.3 989.8
19 18.06 ЮЗ 1
{3}
н/о н/о +32.7 +27 +27 жарко 1012.2 989.7
20 18.06 Ю 1
{3}
н/о н/о +32.0 +27 +27 жарко 1012.4 989.8
21 18.06 ЮЗ 1
{2}
н/о н/о +30.5 +25 +25 комфорт 1012.8 990.1
22 18.06 штиль 0
{1}
н/о н/о +25.7 +21 +21 комфорт 1013.9 990.8
23 18.06 штиль 0
{1}
н/о н/о +25.7 +21 +21 комфорт 1014.3 991.2
00 19.06 штиль 0
{1}
н/о н/о +24.3 +20 +20 1015.0 991.8
01 19.06 штиль 0
{1}
н/о н/о +23.1 +19 +19 1015.5 992.2
02 19.06 штиль 0
{1}
н/о н/о +23.0 +19 +19 1015.6 992.3
03 19.06 СЗ 1
{1}
н/о н/о +23.3 +19 +19 1015.3 992.0
04 19.06 СЗ 1
{2}
н/о н/о +23.1 +19 +19 1015.1 991.8
05 19.06 СЗ 1
{1}
н/о н/о +22.6 +19 +19 1014.9 991.6
06 19.06 СЗ 1
{1}
н/о н/о +22.2 +19 +19 1014.8 991.4
07 19.06 СЗ 1
{1}
н/о н/о +21.9 +19 +19 1014.7 991.3
08 19.06 СЗ 1
{2}
н/о н/о +21.8 +19 +19 1015.1 991.7
09 19.06 штиль 0
{1}
н/о н/о +21.7 +19 +19 1015.4 992.0
10 19.06 штиль 0
{1}
н/о н/о +21.7 +19 +19 1016.4 992.9
11 19.06 З 1
{1}
н/о н/о +23.8 +20 +20 1016.7 993.4
12 19.06 ЮЗ 1
{2}
н/о н/о +27.7 +23 +23 комфорт 1017.2 994.2
13 19.06 ЮЗ 1
{2}
н/о н/о +29.5 +24 +24 комфорт 1017.7 994.8
14 19.06 Ю 1
{3}
н/о н/о +31.2 +26 +26 жарко 1017.2 994.5
15 19.06 Ю 2
{3}
н/о н/о +31.9 +27 +27 жарко 1016.6 993.9
16 19.06 Ю 2
{3}
н/о н/о +32.3 +27 +27 жарко 1015.7 993.1
17 19.06 Ю 1
{3}
н/о н/о +31.2 +26 +26 жарко 1015.2 992.5
18 19.06 ЮЗ 1
{2}
н/о н/о +32.6 +27 +27 жарко 1014.4 991.8
19 19.06 ЮЗ 1
{2}
н/о н/о +32.1 +27 +27 жарко 1013.7 991.1
20 19.06 З 1
{2}
н/о н/о +31.6 +26 +26 жарко 1013.5 990.9
21 19.06 штиль 0
{2}
н/о н/о +30.1 +25 +25 комфорт 1013.9 991.1
22 19.06 штиль 0
{1}
н/о н/о +26.2 +22 +22 комфорт 1014.4 991.3
23 19.06 штиль 0
{1}
н/о н/о +24.3 +20 +20 1014.9 991.7
00 20.06 штиль 0 н/о н/о +24.2 +20 +20 1015.3 992.1
01 20.06 штиль 0
{1}
н/о н/о +23.6 +20 +20 1015.9 992.6
02 20.06 штиль 0 н/о н/о +22.5 +19 +19 1016.3 992.9
03 20.06 штиль 0 н/о н/о +22.4 +19 +19 1016.3 992.9
04 20.06 штиль 0
{1}
н/о н/о +21.8 -25.4 3 +19 +19 1016.1 992.7

 

Местоположение метеостанции Сан-Феликс-ду-Арагуайя (Мату-Гросу, Бразилия): широта -11.62 долгота -50.73 высота над уровнем моря 220 м.

В архиве по умолчанию представлена погода в Сан-Феликс-ду-Арагуайе за последнюю неделю. Архивные данные за месяц целиком и за предыдущие месяцы, начиная с января 2011 года, Вы можете получить, выбрав интересующий диапазон дат из раскрывающегося списка и нажав кнопку "Ввод!".


*Определитесь, кто Вы:
робот инопланетянин человек

Внимание! Время в таблицах - всемирное. Для получения местного времени необходимо прибавить поправку, которая равна -3 ч.

Смотрите также архив погоды в соседних городах и на ближайших метеорологических станциях:

Погода в Формозу-ду-Арагуае (Токантинс, Бразилия) (126 км)
Погода в Лагоа-да-Конфузане (Токантинс, Бразилия) (132 км)
Погода в Сан-Мигел-ду-Арагуая (Гояс, Бразилия) (140 км)
Погода в Конфрезе (Мату-Гросу, Бразилия) (142 км)
Погода в Арагуасу (Токантинс, Бразилия) (169 км)
Погода в Пиуне (Токантинс, Бразилия) (175 км)
Погода в Гурупи (Токантинс, Бразилия) (184 км)
Погода в Кьюренции (Мату-Гросу, Бразилия) (197 км)
Погода в Пейши (Токантинс, Бразилия) (241 км)
Погода в Пейши (Токантинс, Бразилия) (244 км)

Пояснения к столбцам:

Ветер - указаны скорость ветра в м/с - средняя за 10 мин, порывы в срок и между сроками (в фигурных скобках) и направление, откуда дует ветер: С - северный, СВ - северо-восточный, В - восточный, ЮВ - юго-восточный, Ю - южный, ЮЗ - юго-западный, З - западный, СЗ - северо-западный.
Видимость - горизонтальная дальность видимости в метрах или километрах. При видимости от 1 до 10 км при отсутствии осадков обычно наблюдается дымка, при ухудшении видимости до 1 км и менее - туман. В сухую погоду видимость может ухудшаться дымом, пылью или мглою.
Явления - указаны атмосферные явления, наблюдавшиеся в срок или в последний час перед сроком; фигурными скобками обозначены явления, наблюдавшиеся между сроками (за 1-3 часа до срока); квадратными скобками обозначены град или гололедные отложения с указанием их диаметра в мм.
Облачность - указаны через наклонную черту общая и нижняя облачность в баллах и высота нижней границы облаков в метрах; квадратными скобками обозначены формы облаков: Ci - перистые, Cs - перисто-слоистые, Cc - перисто-кучевые, Ac - высококучевые, As - высокослоистые, Sc - слоисто-кучевые, Ns - слоисто-дождевые, Cu - кучевые, Cb - кучево-дождевые. Подробнее классификацию облаков см. в Атласе облаков (PDF).
T - Температура воздуха - температура, измеренная на высоте 2 м над землей.
Td - Температура точки росы - температура, при понижении до которой содержащийся в воздухе водяной пар достигнет насыщения.
f - Относительная влажность воздуха - влажноcть воздуха, измеренная на высоте 2 м над землей.
Te - Эффективная температура - температура, которую ощущает одетый по сезону человек в тени. Характеристика душности погоды. При расчете учитывается влияние влажности воздуха и скорости ветра на теплоощущения человека.
Tes - Эффективная температура на солнце - температура, которую ощущает человек, с поправкой на солнечный нагрев. Характеристика знойности погоды. Зависит от высоты солнца над горизонтом, облачности и скорости ветра. Ночью, в пасмурную погоду, а также при ветре 12 м/с и более поправка равна нулю.
P - Атмосферное давление - приведенное к уровню моря атмосферное давление.
Po - Атмосферное давление - измеренное на уровне метеостанции атмосферное давление.
Tmin - Минимальная температура - минимум температуры воздуха на высоте 2 м над землей.
Tmax - Максимальная температура - максимум температуры воздуха на высоте 2 м над землей.
R - Количество осадков - Количество выпавших осадков за период времени, мм. При наведении курсора мыши на число - период времени, за который выпало указанное количество осадков.
R24 - Количество осадков - Количество выпавших осадков за 24 часа, мм.
S - Снежный покров - Высота снежного покрова, см. При наведении курсора мыши на число - состояние снежного покрова и степень покрытия местности в баллах.